Time,TemperatureF,DewpointF,PressureIn,WindDirection,WindDirectionDegrees,WindSpeedMPH,WindSpeedGustMPH,Humidity,HourlyPrecipIn,Conditions,Clouds,dailyrainin,SoftwareType,DateUTC
2013-04-20 00:04:00,30.9,27.0,29.75,SW,223,15.0,-999.0,85,-99.99,,,0.00,weatherlink.com 1.10,2013-04-20 04:04:00,
2013-04-20 00:19:00,29.9,26.0,29.76,SW,235,14.0,-999.0,85,-99.99,,,0.00,weatherlink.com 1.10,2013-04-20 04:19:00,
2013-04-20 00:34:00,29.4,27.0,29.77,WSW,257,10.0,-999.0,90,-99.99,,,0.00,weatherlink.com 1.10,2013-04-20 04:34:00,
2013-04-20 00:49:00,29.2,27.0,29.78,SW,221,14.0,-999.0,90,-99.99,,,0.00,weatherlink.com 1.10,2013-04-20 04:49:00,
2013-04-20 01:04:00,28.9,27.0,29.77,WSW,248,15.0,-999.0,93,-99.99,,,0.00,weatherlink.com 1.10,2013-04-20 05:04:00,
2013-04-20 01:19:00,28.8,27.0,29.78,West,265,12.0,-999.0,93,-99.99,,,0.00,weatherlink.com 1.10,2013-04-20 05:19:00,
2013-04-20 01:34:00,28.5,27.0,29.79,SW,223,13.0,-999.0,92,-99.99,,,0.00,weatherlink.com 1.10,2013-04-20 05:34:00,
2013-04-20 01:50:00,28.3,26.0,29.80,SW,224,11.0,-999.0,92,-99.99,,,0.00,weatherlink.com 1.10,2013-04-20 05:50:00,
2013-04-20 02:04:00,28.1,26.0,29.80,West,276,10.0,-999.0,91,-99.99,,,0.00,weatherlink.com 1.10,2013-04-20 06:04:00,
2013-04-20 02:20:00,27.8,26.0,29.80,WSW,248,27.0,-999.0,91,-99.99,,,0.00,weatherlink.com 1.10,2013-04-20 06:20:00,
2013-04-20 02:35:00,27.5,26.0,29.80,WSW,253,18.0,-999.0,92,-99.99,,,0.00,weatherlink.com 1.10,2013-04-20 06:35:00,
2013-04-20 02:50:00,26.9,25.0,29.79,WSW,242,18.0,-999.0,92,-99.99,,,0.00,weatherlink.com 1.10,2013-04-20 06:50:00,
2013-04-20 03:05:00,26.4,24.0,29.80,WSW,248,20.0,-999.0,91,-99.99,,,0.00,weatherlink.com 1.10,2013-04-20 07:05:00,
2013-04-20 03:20:00,26.3,24.0,29.81,SW,234,14.0,-999.0,92,-99.99,,,0.00,weatherlink.com 1.10,2013-04-20 07:20:00,
2013-04-20 03:35:00,26.1,24.0,29.82,West,273,19.0,-999.0,91,-99.99,,,0.00,weatherlink.com 1.10,2013-04-20 07:35:00,
2013-04-20 03:50:00,25.7,23.0,29.83,WNW,303,9.0,-999.0,90,-99.99,,,0.00,weatherlink.com 1.10,2013-04-20 07:50:00,
2013-04-20 04:05:00,25.3,23.0,29.83,SW,215,14.0,-999.0,91,-99.99,,,0.00,weatherlink.com 1.10,2013-04-20 08:05:00,
2013-04-20 04:20:00,25.1,23.0,29.84,WSW,241,22.0,-999.0,91,-99.99,,,0.00,weatherlink.com 1.10,2013-04-20 08:20:00,
2013-04-20 04:35:00,24.8,22.0,29.84,SW,230,14.0,-999.0,90,-99.99,,,0.00,weatherlink.com 1.10,2013-04-20 08:35:00,
2013-04-20 04:50:00,24.5,22.0,29.86,SW,225,24.0,-999.0,89,-99.99,,,0.00,weatherlink.com 1.10,2013-04-20 08:50:00,
2013-04-20 05:05:00,24.2,21.0,29.85,West,281,22.0,-999.0,88,-99.99,,,0.00,weatherlink.com 1.10,2013-04-20 09:05:00,
2013-04-20 05:20:00,24.1,21.0,29.86,SW,233,13.0,-999.0,89,-99.99,,,0.00,weatherlink.com 1.10,2013-04-20 09:20:00,
2013-04-20 05:35:00,24.0,22.0,29.87,SW,224,19.0,-999.0,90,-99.99,,,0.00,weatherlink.com 1.10,2013-04-20 09:35:00,
2013-04-20 05:50:00,24.0,22.0,29.87,WSW,246,14.0,-999.0,90,-99.99,,,0.00,weatherlink.com 1.10,2013-04-20 09:50:00,
2013-04-20 06:05:00,23.9,22.0,29.89,WSW,237,9.0,-999.0,91,-99.99,,,0.00,weatherlink.com 1.10,2013-04-20 10:05:00,
2013-04-20 06:20:00,23.9,22.0,29.89,West,265,9.0,-999.0,92,-99.99,,,0.00,weatherlink.com 1.10,2013-04-20 10:20:00,
2013-04-20 06:35:00,23.9,22.0,29.90,SW,227,15.0,-999.0,92,-99.99,,,0.00,weatherlink.com 1.10,2013-04-20 10:35:00,
2013-04-20 06:50:00,24.0,22.0,29.91,SW,217,7.0,-999.0,92,-99.99,,,0.00,weatherlink.com 1.10,2013-04-20 10:50:00,
2013-04-20 07:05:00,24.1,22.0,29.91,WNW,297,9.0,-999.0,93,-99.99,,,0.00,weatherlink.com 1.10,2013-04-20 11:05:00,
2013-04-20 07:20:00,24.2,23.0,29.92,WSW,254,13.0,-999.0,93,-99.99,,,0.00,weatherlink.com 1.10,2013-04-20 11:20:00,
2013-04-20 07:35:00,24.3,23.0,29.93,WSW,246,10.0,-999.0,93,-99.99,,,0.00,weatherlink.com 1.10,2013-04-20 11:35:00,
2013-04-20 07:50:00,24.3,23.0,29.94,WNW,288,20.0,-999.0,93,-99.99,,,0.00,weatherlink.com 1.10,2013-04-20 11:50:00,
2013-04-20 08:05:00,24.5,22.0,29.94,SSW,203,13.0,-999.0,90,-99.99,,,0.00,weatherlink.com 1.10,2013-04-20 12:05:00,
2013-04-20 08:20:00,24.9,22.0,29.95,West,281,15.0,-999.0,89,-99.99,,,0.00,weatherlink.com 1.10,2013-04-20 12:20:00,
2013-04-20 08:35:00,24.8,22.0,29.96,West,276,22.0,-999.0,89,-99.99,,,0.00,weatherlink.com 1.10,2013-04-20 12:35:00,
2013-04-20 08:51:00,24.8,22.0,29.97,WSW,254,20.0,-999.0,88,-99.99,,,0.00,weatherlink.com 1.10,2013-04-20 12:51:00,
2013-04-20 09:06:00,25.2,22.0,29.98,WSW,258,26.0,-999.0,88,-99.99,,,0.00,weatherlink.com 1.10,2013-04-20 13:06:00,
2013-04-20 09:21:00,25.7,23.0,29.99,SW,215,16.0,-999.0,88,-99.99,,,0.00,weatherlink.com 1.10,2013-04-20 13:21:00,
2013-04-20 09:36:00,26.7,23.0,30.00,SW,233,22.0,-999.0,84,-99.99,,,0.00,weatherlink.com 1.10,2013-04-20 13:36:00,
2013-04-20 09:51:00,26.9,22.0,30.00,SW,229,10.0,-999.0,83,-99.99,,,0.00,weatherlink.com 1.10,2013-04-20 13:51:00,
2013-04-20 10:06:00,27.7,23.0,30.02,WSW,254,19.0,-999.0,83,-99.99,,,0.00,weatherlink.com 1.10,2013-04-20 14:06:00,
2013-04-20 10:21:00,28.1,22.0,30.04,WSW,257,15.0,-999.0,79,-99.99,,,0.00,weatherlink.com 1.10,2013-04-20 14:21:00,
2013-04-20 10:36:00,28.3,24.0,30.05,WSW,252,15.0,-999.0,82,-99.99,,,0.00,weatherlink.com 1.10,2013-04-20 14:36:00,
2013-04-20 10:51:00,28.6,24.0,30.05,West,259,16.0,-999.0,81,-99.99,,,0.00,weatherlink.com 1.10,2013-04-20 14:51:00,
2013-04-20 11:06:00,29.7,24.0,30.07,WSW,257,22.0,-999.0,79,-99.99,,,0.00,weatherlink.com 1.10,2013-04-20 15:06:00,
2013-04-20 11:21:00,30.1,24.0,30.08,West,279,5.0,-999.0,77,-99.99,,,0.00,weatherlink.com 1.10,2013-04-20 15:21:00,
2013-04-20 11:36:00,32.4,25.0,30.09,WSW,242,11.0,-999.0,73,-99.99,,,0.00,weatherlink.com 1.10,2013-04-20 15:36:00,
2013-04-20 11:51:00,31.4,24.0,30.09,SW,221,15.0,-999.0,75,-99.99,,,0.00,weatherlink.com 1.10,2013-04-20 15:51:00,
2013-04-20 12:06:00,33.2,24.0,30.10,SW,232,15.0,-999.0,70,-99.99,,,0.00,weatherlink.com 1.10,2013-04-20 16:06:00,
2013-04-20 12:21:00,32.7,23.0,30.10,WSW,252,15.0,-999.0,67,-99.99,,,0.00,weatherlink.com 1.10,2013-04-20 16:21:00,
2013-04-20 12:36:00,34.4,25.0,30.11,WSW,258,14.0,-999.0,69,-99.99,,,0.00,weatherlink.com 1.10,2013-04-20 16:36:00,
2013-04-20 12:51:00,33.7,24.0,30.11,SW,222,11.0,-999.0,67,-99.99,,,0.00,weatherlink.com 1.10,2013-04-20 16:51:00,
2013-04-20 13:06:00,34.6,24.0,30.11,WSW,242,19.0,-999.0,65,-99.99,,,0.00,weatherlink.com 1.10,2013-04-20 17:06:00,
2013-04-20 13:21:00,33.9,24.0,30.11,West,268,19.0,-999.0,66,-99.99,,,0.00,weatherlink.com 1.10,2013-04-20 17:21:00,
2013-04-20 13:36:00,35.5,22.0,30.12,WNW,289,18.0,-999.0,59,-99.99,,,0.00,weatherlink.com 1.10,2013-04-20 17:36:00,
2013-04-20 13:51:00,36.7,23.0,30.12,WSW,253,18.0,-999.0,58,-99.99,,,0.00,weatherlink.com 1.10,2013-04-20 17:51:00,
2013-04-20 14:06:00,37.8,23.0,30.12,WSW,250,11.0,-999.0,56,-99.99,,,0.00,weatherlink.com 1.10,2013-04-20 18:06:00,
2013-04-20 14:21:00,37.4,23.0,30.14,WNW,290,5.0,-999.0,57,-99.99,,,0.00,weatherlink.com 1.10,2013-04-20 18:21:00,
2013-04-20 14:36:00,37.4,23.0,30.14,SW,235,6.0,-999.0,57,-99.99,,,0.00,weatherlink.com 1.10,2013-04-20 18:36:00,
2013-04-20 14:51:00,39.0,24.0,30.15,SW,215,8.0,-999.0,56,-99.99,,,0.00,weatherlink.com 1.10,2013-04-20 18:51:00,
2013-04-20 15:06:00,41.2,24.0,30.15,West,272,9.0,-999.0,50,-99.99,,,0.00,weatherlink.com 1.10,2013-04-20 19:06:00,
2013-04-20 15:21:00,39.7,21.0,30.16,WSW,248,12.0,-999.0,48,-99.99,,,0.00,weatherlink.com 1.10,2013-04-20 19:21:00,
2013-04-20 15:37:00,40.5,22.0,30.16,West,277,11.0,-999.0,47,-99.99,,,0.00,weatherlink.com 1.10,2013-04-20 19:37:00,
2013-04-20 15:52:00,40.4,22.0,30.17,SW,219,14.0,-999.0,49,-99.99,,,0.00,weatherlink.com 1.10,2013-04-20 19:52:00,
2013-04-20 16:07:00,41.8,22.0,30.17,NW,305,18.0,-999.0,46,-99.99,,,0.00,weatherlink.com 1.10,2013-04-20 20:07:00,
2013-04-20 16:22:00,41.1,23.0,30.18,West,265,5.0,-999.0,48,-99.99,,,0.00,weatherlink.com 1.10,2013-04-20 20:22:00,
2013-04-20 16:37:00,41.0,22.0,30.18,West,261,14.0,-999.0,47,-99.99,,,0.00,weatherlink.com 1.10,2013-04-20 20:37:00,
2013-04-20 16:52:00,39.9,21.0,30.19,WSW,254,14.0,-999.0,48,-99.99,,,0.00,weatherlink.com 1.10,2013-04-20 20:52:00,
2013-04-20 17:07:00,39.8,21.0,30.20,WSW,246,14.0,-999.0,48,-99.99,,,0.00,weatherlink.com 1.10,2013-04-20 21:07:00,
2013-04-20 17:22:00,40.0,22.0,30.20,West,267,15.0,-999.0,48,-99.99,,,0.00,weatherlink.com 1.10,2013-04-20 21:22:00,
2013-04-20 17:37:00,40.9,21.0,30.21,SW,220,10.0,-999.0,46,-99.99,,,0.00,weatherlink.com 1.10,2013-04-20 21:37:00,
2013-04-20 17:52:00,39.8,21.0,30.22,SW,234,13.0,-999.0,48,-99.99,,,0.00,weatherlink.com 1.10,2013-04-20 21:52:00,
2013-04-20 18:07:00,38.9,21.0,30.23,West,265,20.0,-999.0,49,-99.99,,,0.00,weatherlink.com 1.10,2013-04-20 22:07:00,
2013-04-20 18:22:00,39.2,21.0,30.23,WSW,252,5.0,-999.0,49,-99.99,,,0.00,weatherlink.com 1.10,2013-04-20 22:22:00,
2013-04-20 18:37:00,38.0,20.0,30.24,WSW,252,16.0,-999.0,49,-99.99,,,0.00,weatherlink.com 1.10,2013-04-20 22:37:00,
2013-04-20 18:52:00,37.6,21.0,30.24,WSW,239,8.0,-999.0,51,-99.99,,,0.00,weatherlink.com 1.10,2013-04-20 22:52:00,
2013-04-20 19:07:00,37.1,21.0,30.24,SSW,213,8.0,-999.0,52,-99.99,,,0.00,weatherlink.com 1.10,2013-04-20 23:07:00,
2013-04-20 19:22:00,36.5,20.0,30.25,NW,311,9.0,-999.0,52,-99.99,,,0.00,weatherlink.com 1.10,2013-04-20 23:22:00,
2013-04-20 19:37:00,35.5,21.0,30.25,SW,228,8.0,-999.0,56,-99.99,,,0.00,weatherlink.com 1.10,2013-04-20 23:37:00,
2013-04-20 19:52:00,34.8,20.0,30.26,WSW,255,10.0,-999.0,55,-99.99,,,0.00,weatherlink.com 1.10,2013-04-20 23:52:00,
2013-04-20 20:07:00,33.9,20.0,30.27,West,278,9.0,-999.0,58,-99.99,,,0.00,weatherlink.com 1.10,2013-04-21 00:07:00,
2013-04-20 20:22:00,33.3,20.0,30.28,SW,236,7.0,-999.0,58,-99.99,,,0.00,weatherlink.com 1.10,2013-04-21 00:22:00,
2013-04-20 20:41:00,33.0,19.0,30.30,West,264,4.0,-999.0,57,-99.99,,,0.00,weatherlink.com 1.10,2013-04-21 00:41:00,
2013-04-20 20:52:00,32.7,19.0,30.30,WNW,300,6.0,-999.0,58,-99.99,,,0.00,weatherlink.com 1.10,2013-04-21 00:52:00,
2013-04-20 21:07:00,32.5,19.0,30.31,WNW,290,12.0,-999.0,59,-99.99,,,0.00,weatherlink.com 1.10,2013-04-21 01:07:00,
2013-04-20 21:22:00,32.0,20.0,30.33,WSW,258,5.0,-999.0,61,-99.99,,,0.00,weatherlink.com 1.10,2013-04-21 01:22:00,
2013-04-20 21:37:00,31.7,20.0,30.34,West,264,6.0,-999.0,63,-99.99,,,0.00,weatherlink.com 1.10,2013-04-21 01:37:00,
2013-04-20 21:52:00,31.2,21.0,30.34,WNW,294,2.0,-999.0,65,-99.99,,,0.00,weatherlink.com 1.10,2013-04-21 01:52:00,
2013-04-20 22:07:00,30.8,21.0,30.34,WNW,283,6.0,-999.0,67,-99.99,,,0.00,weatherlink.com 1.10,2013-04-21 02:07:00,
2013-04-20 22:22:00,30.6,21.0,30.35,NW,325,1.0,-999.0,68,-99.99,,,0.00,weatherlink.com 1.10,2013-04-21 02:22:00,
2013-04-20 22:37:00,30.0,21.0,30.35,NNW,338,1.0,-999.0,70,-99.99,,,0.00,weatherlink.com 1.10,2013-04-21 02:37:00,
2013-04-20 22:52:00,29.6,21.0,30.36,NNE,19,0.0,-999.0,71,-99.99,,,0.00,weatherlink.com 1.10,2013-04-21 02:52:00,
2013-04-20 23:07:00,29.0,21.0,30.37,ENE,59,1.0,-999.0,71,-99.99,,,0.00,weatherlink.com 1.10,2013-04-21 03:07:00,
2013-04-20 23:22:00,28.5,21.0,30.37,NW,307,0.0,-999.0,73,-99.99,,,0.00,weatherlink.com 1.10,2013-04-21 03:22:00,
2013-04-20 23:37:00,28.5,21.0,30.37,NE,46,5.0,-999.0,74,-99.99,,,0.00,weatherlink.com 1.10,2013-04-21 03:37:00,
2013-04-20 23:52:00,28.1,21.0,30.38,NE,49,4.0,-999.0,75,-99.99,,,0.00,weatherlink.com 1.10,2013-04-21 03:52:00,